Location: Peach Mountain Observatory
(42.3967°N, 83.9367°W)
Time: 21:28:16
(UTC-05:00)

S-56A Canister/Altair - Pass Details

Date: 27 January 2020
Orbit: 633 x 2500 km, 38.9° (Epoch: 26 February)

Event Time Altitude Azimuth Distance (km) Brightness Sun altitude
Rises 01:08:06 0° 274° (W) 3,055 - -65.8°
Reaches altitude 10° 01:10:53 10° 260° (W) 2,044 - -65.7°
Maximum altitude 01:14:29 24° 206° (SSW) 1,315 - -65.5°
Drops below altitude 10° 01:18:08 10° 152° (SSE) 2,066 - -65.4°
Sets 01:20:58 0° 138° (SE) 3,097 - -65.2°
